Location: Unspecified
(42.3650°N, 71.1030°W)
Time: 16:37:44
(UTC+00:00)

S-56A Canister/Altair - Pass Details

Date: 03 July 2024
Orbit: 638 x 2487 km, 38.9° (Epoch: 20 July)

Event Time Altitude Azimuth Distance (km) Brightness Sun altitude
Rises 05:54:12 0° 274° (W) 4,925 11.5 -23.0°
Reaches altitude 10° 05:58:48 10° 256° (WSW) 4,269 11.0 -22.7°
Enters shadow 06:01:25 14° 243° (WSW) 4,084 10.8 -22.6°
